Torna al catalogo

SL-8 DEB

AttivoLEO
NORAD 21187·DEBRIS·🇷🇺 Russia

Lanciato Feb 12, 1991 da Plesetsk Cosmodrome

Loading…

Prossimi Passaggi (prossime 24 ore)

TLE

AggiornatoSource: Space-Track

Epoca: Sep 13, 2026, 22:44 UTC

1 21187U 91009BA  26256.94739766  .00000275  00000-0  30437-2 0  9993
2 21187  74.2407 248.0008 0179981 279.9632 106.1239 12.09402625568046

Traccia SL-8 DEB in tempo reale con AllMySat

Download on the App Store